[ ตารางข้อมูล ] [ Min-Max ] [ วันนี้4 ] [ วันนี้2 ] [ เทียบ3วัน A ] [ เทียบ4วัน B ]   

วันนี้2   [ ◀ ช่วงเก่ากว่า ] [ ช่วงที่ 172 ] [ ช่วงใหม่กว่า ▶ ] [ ล่าสุด ]    [ 3 ชั่วโมง ] [ 6 ชั่วโมง ] [ 12 ชั่วโมง ] [ 24 ชั่วโมง ]   วันนี้2

อุณภูมิตู้ Knockdown4529  ราย 6 ชั่วโมง  ที่วัดได้ ในช่วงวันเวลา 20/03/2026 (22:37) ถึง 21/03/2026 (04:37) 
ความชื้นในตู้ Knockdown4529  ราย 6 ชั่วโมง  ที่วัดได้ ในช่วงวันเวลา 20/03/2026 (22:37) ถึง 21/03/2026 (04:37) 

 
DS18B20SHTC3 
IDDate d/m/Y & Timedata1
สูง
data2
ต่ำ
data3
นอก
temp
pcb
hum
pcb
Time
 4433  21/03/2026 04:36:26  28.2  28.3  25.1  27.9  74.2  04:36 
 4432  21/03/2026 04:31:44  28.2  28.3  25.1  27.9  74.1  04:31 
 4431  21/03/2026 04:27:02  28.2  28.3  25.0  28.0  74.1  04:27 
 4430  21/03/2026 04:22:20  28.2  28.3  24.9  28.0  74.1  04:22 
 4429  21/03/2026 04:17:38  28.2  28.3  24.7  27.9  74.1  04:17 
 4428  21/03/2026 04:12:56  28.1  28.4  24.7  28.0  74.2  04:12 
 4427  21/03/2026 04:08:15  28.2  28.4  24.7  27.9  74.1  04:08 
 4426  21/03/2026 04:03:33  28.2  28.4  24.9  28.0  74.0  04:03 
 4425  21/03/2026 03:58:51  28.2  28.4  25.0  28.1  74.0  03:58 
 4424  21/03/2026 03:54:10  28.2  28.4  24.9  28.1  74.1  03:54 
 4423  21/03/2026 03:49:28  28.2  28.4  25.0  28.1  74.0  03:49 
 4422  21/03/2026 03:44:46  28.2  28.4  25.2  28.1  73.9  03:44 
 4421  21/03/2026 03:40:05  28.3  28.4  25.2  28.1  73.9  03:40 
 4420  21/03/2026 03:35:24  28.3  28.5  25.3  28.1  73.8  03:35 
 4419  21/03/2026 03:30:42  28.3  28.5  25.0  28.1  73.8  03:30 
 4418  21/03/2026 03:26:00  28.3  28.5  25.0  28.1  74.0  03:26 
 4417  21/03/2026 03:21:18  28.3  28.5  25.2  28.4  73.9  03:21 
 4416  21/03/2026 03:16:37  28.4  28.6  25.3  28.2  73.9  03:16 
 4415  21/03/2026 03:11:55  28.4  28.6  25.6  28.1  73.9  03:11 
 4414  21/03/2026 03:07:13  28.4  28.6  25.7  28.2  73.8  03:07 
 4413  21/03/2026 03:02:31  28.4  28.6  25.5  28.1  73.7  03:02 
 4412  21/03/2026 02:57:50  28.4  28.6  25.5  28.4  73.8  02:57 
 4411  21/03/2026 02:53:08  28.4  28.6  25.5  28.4  73.8  02:53 
 4410  21/03/2026 02:48:27  28.4  28.6  25.2  28.3  73.7  02:48 

Data every 5 minute.


ใช้เวลาประมวลผล 0.00352 วินาที